Probability
3 3 2 1 1 2 3 3 3 2 1 0 0 0 0 0 0 0 0 0 0 0 1 1 1 1 1 1 0 1 2 2 1 0 0 0 0 0 0 0 0 0 0
3 2 1 0 1 2 3 3 3 3 1 0 0 0 0 0 0 0 0 0 0 0 0 1 1 1 2 2 1 0 1 2 1 1 0 0 0 0 0 0 0 0 1
2 1 0 0 1 2 3 3 3 3 2 1 0 0 0 0 0 0 0 0 0 0 0 0 1 1 2 3 2 1 1 1 2 1 0 0 0 0 0 0 0 0 1
1 0 0 0 0 1 2 3 3 3 3 1 0 0 0 0 0 0 0 0 0 0 0 0 0 1 2 2 2 1 1 2 2 1 0 0 0 0 0 0 0 0 1
0 0 0 0 0 0 1 3 3 3 3 2 1 0 0 0 0 0 0 0 0 0 0 0 0 0 1 1 1 1 2 3 2 1 1 1 2 1 0 0 0 0 0
0 0 0 0 0 0 1 2 3 3 3 2 1 0 0 0 0 0 0 0 0 0 0 0 0 0 0 0 0 1 2 3 3 2 2 3 3 2 1 0 0 0 0
0 0 0 0 0 0 0 1 2 2 2 1 0 0 0 0 0 0 0 0 0 0 0 0 0 0 0 0 0 1 2 2 2 3 3 3 3 2 1 1 1 1 0
0 0 0 0 0 0 0 0 1 1 1 0 0 0 0 0 0 0 0 0 0 0 0 0 0 0 0 0 0 0 1 1 2 3 3 3 4 3 2 2 3 2 1
0 0 0 0 0 0 0 0 0 1 1 1 0 0 0 0 0 0 0 0 0 0 0 0 0 0 0 0 0 0 0 0 1 3 4 4 5 5 5 6 5 4 3
0 0 0 0 0 0 0 0 1 2 2 1 0 0 0 0 0 0 0 0 0 0 0 0 0 0 0 0 0 0 0 0 1 2 4 5 6 6 7 8 6 4 3
0 0 0 0 0 0 0 0 1 2 2 1 0 0 0 0 0 0 0 0 0 0 0 0 0 0 0 0 0 0 0 0 1 2 2 4 5 5 5 5 5 3 2
0 0 0 0 0 0 0 0 1 1 1 0 0 0 0 0 0 0 0 0 0 0 0 0 0 0 0 0 0 0 0 0 1 1 1 1 2 1 1 2 3 3 2
0 0 0 0 0 0 0 0 0 1 1 0 0 0 0 0 0 0 0 0 0 0 0 0 0 0 0 0 0 0 0 0 0 0 0 0 0 0 0 1 1 2 2
0 0 0 0 0 0 0 0 0 0 1 0 0 0 0 0 0 0 0 0 0 0 0 0 0 0 0 0 0 0 0 0 0 0 0 0 0 0 0 0 0 1 1
0 0 0 0 0 0 0 0 0 0 0 0 0 0 0 0 0 0 0 0 0 0 0 0 0 0 0 0 0 0 0 0 0 0 0 0 0 0 0 0 0 0 0
0 0 0 0 0 0 0 0 0 0 0 0 0 0 0 0 0 0 0 0 0 0 0 0 0 0 0 0 0 0 0 0 0 0 0 0 0 0 0 0 0 0 0
0 0 0 0 0 0 0 0 0 0 0 0 0 0 0 0 0 0 0 0 0 0 0 0 0 0 0 0 0 0 0 0 0 0 0 0 0 0 0 0 0 0 0
0 0 0 0 0 0 0 0 0 0 0 0 0 0 0 0 0 0 0 0 0 0 0 0 0 0 0 0 0 0 0 0 0 0 0 0 0 0 0 0 0 0 0
0 0 0 0 0 0 0 0 0 0 0 0 0 0 0 0 0 0 0 0 0 0 0 0 0 0 0 0 0 0 0 0 0 0 0 0 0 0 0 0 0 0 0
0 0 0 0 0 0 0 0 0 0 0 0 0 0 0 0 0 0 0 0 0 0 0 0 0 0 0 0 0 0 0 0 0 0 0 0 0 0 0 0 0 0 0
0 0 0 0 0 0 0 0 0 0 0 0 0 0 0 0 0 0 0 0 0 0 0 0 0 0 0 0 0 0 0 0 0 0 0 0 0 0 0 0 0 0 0
0 0 0 0 0 0 0 0 0 0 0 0 0 0 0 0 0 0 0 0 0 0 0 0 0 0 0 0 0 0 0 0 0 0 0 0 0 0 0 0 0 0 0
0 0 0 0 0 0 0 0 0 0 0 0 0 0 0 0 0 0 0 0 0 0 0 0 0 0 0 0 0 0 0 0 0 0 0 0 0 0 0 0 0 0 0
0 0 0 0 0 0 0 0 0 0 0 0 0 0 0 0 0 0 0 0 0 0 0 0 0 0 0 0 0 0 0 0 0 0 0 0 0 0 0 0 0 0 0
0 0 0 0 0 0 0 0 0 0 0 0 0 0 0 0 0 0 0 0 0 0 0 0 0 0 0 0 0 0 0 0 0 0 0 0 0 0 0 0 0 0 0
0 0 0 0 0 0 0 0 0 0 0 0 0 0 0 0 0 0 0 0 0 0 0 0 0 0 0 0 0 0 0 0 0 0 0 0 0 0 0 0 0 0 0
Wind_Speed
2 1 1 1 1 1 1 0 0 1 1 1 1 0 1 1 1 1 1 3 4 5 5 5 4 4 4 4 4 4 5 5 5 6 6 7 7 8 7 8 8 8 9
2 2 1 1 1 1 1 1 1 0 0 0 1 1 1 1 1 1 1 2 4 5 5 5 5 5 4 4 5 5 5 6 6 6 7 7 8 8 8 8 8 9 9
2 2 2 1 1 0 1 1 1 0 0 1 1 2 1 1 2 2 2 2 2 4 5 5 5 5 5 5 5 5 5 6 6 6 7 7 8 8 9 9 9 9 10
2 2 2 1 1 1 1 1 0 0 1 1 1 2 2 2 2 2 2 2 1 1 3 5 5 6 6 6 6 6 6 6 7 7 8 8 8 9 10 10 10 10 11
2 2 1 1 1 1 0 0 0 0 0 1 2 2 2 2 2 2 2 2 1 1 1 3 5 6 6 7 7 7 7 7 8 8 9 9 9 9 10 11 11 11 11
2 2 1 1 1 1 1 0 0 0 0 1 2 2 2 2 2 2 2 1 1 1 1 2 2 4 6 7 8 9 9 9 9 9 9 9 10 10 11 11 12 12 12
2 2 1 1 1 1 2 1 1 0 0 1 1 2 3 2 1 1 1 1 1 1 1 2 2 1 2 6 7 9 9 9 9 9 10 10 11 11 12 12 12 12 13
1 1 1 1 1 1 1 1 1 1 0 0 1 1 2 3 2 2 1 1 1 1 2 2 2 2 2 2 5 8 9 10 11 11 11 11 12 12 12 12 12 12 13
1 1 2 1 1 1 2 2 2 3 2 1 0 1 1 2 3 2 2 1 1 2 2 2 2 3 3 2 3 5 8 10 11 12 11 11 12 12 12 13 13 13 13
1 1 2 2 2 2 2 2 2 2 2 1 1 1 1 1 1 2 2 2 2 2 2 3 3 3 3 2 3 6 7 9 11 12 12 12 12 12 12 12 13 13 13
1 1 2 2 2 2 2 2 2 2 2 2 2 1 1 1 1 2 3 3 3 2 2 3 2 2 2 2 2 4 7 8 10 11 12 12 12 12 12 13 13 13 13
1 2 2 2 2 2 2 2 3 3 3 3 2 2 2 2 2 2 3 3 4 3 3 3 2 2 2 2 3 7 8 8 9 10 10 11 11 12 12 13 13 13 13
2 2 2 2 2 2 2 2 2 3 4 3 3 3 3 3 2 2 2 3 3 3 2 2 2 2 2 2 3 6 7 8 9 9 10 10 11 11 12 12 12 13 13
3 2 2 2 2 2 2 2 2 3 3 3 4 3 3 3 2 2 2 2 3 3 2 3 2 2 2 2 3 6 4 8 8 9 9 10 10 11 10 11 12 12 13
2 2 2 2 2 2 3 2 2 3 3 3 3 3 3 2 2 2 2 2 2 3 4 3 2 2 2 2 4 3 3 6 8 9 9 9 10 10 11 11 11 12 12
2 2 2 2 2 2 2 2 2 3 3 3 3 3 3 2 2 2 2 2 3 3 4 2 2 3 3 3 5 4 4 8 8 9 9 10 10 11 11 11 11 12 12
2 3 3 3 3 3 3 3 3 3 4 3 3 3 4 3 2 2 2 2 2 2 4 4 2 2 3 3 4 3 3 3 4 8 9 10 10 10 11 11 11 12 12
3 3 3 3 3 3 3 3 4 3 4 4 4 4 4 3 3 3 2 3 3 3 3 5 3 2 3 3 3 3 4 4 3 7 9 10 10 10 11 11 12 12 12
2 2 2 3 3 3 3 3 4 4 4 4 4 4 4 3 4 3 3 3 3 3 2 3 4 2 2 2 3 4 4 3 4 6 8 9 9 10 11 12 12 12 12
3 3 3 3 3 4 4 4 4 4 4 4 4 4 4 4 5 4 4 4 3 3 3 3 3 3 2 2 2 3 4 3 4 5 6 6 8 10 11 12 12 12 11
3 3 3 3 3 3 4 4 4 4 4 4 4 4 5 5 6 5 4 3 3 3 2 3 3 3 3 2 2 2 4 4 4 3 3 4 4 4 6 9 10 11 11
3 3 3 3 4 4 5 6 5 4 4 4 4 4 4 5 6 7 7 6 5 4 3 3 3 3 4 3 3 3 3 4 4 2 2 4 3 4 4 4 8 10 10
3 3 3 3 4 5 7 6 6 4 4 4 4 3 3 3 4 3 5 6 5 6 6 4 4 4 4 4 3 4 4 4 5 3 3 4 3 4 4 5 10 10 9
3 3 3 4 4 5 6 6 6 3 3 4 4 4 4 3 3 3 3 2 2 3 5 4 4 4 4 4 4 4 4 4 5 4 2 3 3 3 4 4 8 9 9
3 3 3 3 4 4 6 6 5 2 2 3 3 3 3 3 5 5 3 2 2 3 4 5 5 5 6 6 5 2 2 3 4 3 2 2 3 4 4 3 5 8 9
3 3 3 3 4 4 5 6 5 2 3 2 2 3 4 4 5 5 3 2 3 3 2 2 2 4 3 4 5 3 3 3 3 3 2 2 2 2 3 3 2 3 5
Wind_Direction
140 134 132 118 111 113 123 108 85 75 52 5 349 345 305 289 284 281 290 290 293 293 286 280 276 271 272 274 277 280 283 286 288 291 292 297 299 303 303 304 301 301 298
140 137 133 128 143 159 152 159 160 148 255 296 315 298 273 272 272 274 270 287 291 291 287 282 278 276 274 279 283 283 285 286 288 291 295 297 300 300 300 302 303 299 299
136 141 138 140 160 155 127 109 85 69 340 331 308 295 277 272 266 266 266 262 282 292 289 283 281 281 276 277 281 285 289 292 293 295 296 297 299 300 300 300 300 299 299
128 129 132 149 151 120 122 137 127 87 332 322 307 293 286 277 265 263 263 263 271 286 297 298 295 288 287 284 281 283 286 290 293 295 297 297 296 296 297 297 299 296 297
121 126 139 157 142 121 118 161 76 150 297 310 297 291 287 273 262 269 269 265 261 256 273 302 301 295 289 289 288 286 286 289 291 293 294 294 296 297 296 295 296 294 296
129 131 130 146 138 133 151 171 168 105 244 278 306 310 296 282 267 246 250 263 273 270 274 290 294 299 298 294 296 293 289 287 289 292 294 293 294 294 293 293 295 294 295
135 134 143 162 162 168 195 193 181 165 304 346 357 322 310 296 268 252 253 265 282 287 288 282 278 279 295 298 299 296 295 294 291 292 294 292 291 291 292 294 294 292 292
154 147 152 177 193 174 195 203 178 170 264 119 127 3 322 323 318 308 281 254 271 299 300 303 284 276 281 281 293 299 300 299 298 295 293 293 291 290 293 294 292 292 292
168 175 173 181 198 186 207 215 191 181 193 241 180 163 193 252 309 306 309 300 295 289 289 291 282 281 281 282 286 292 298 301 299 297 296 294 294 293 295 296 294 292 294
192 194 188 190 199 200 212 225 202 197 177 209 264 250 227 199 225 299 310 314 307 294 293 299 295 287 284 282 283 293 301 303 302 302 301 300 300 301 302 302 300 298 298
212 217 208 201 207 210 217 225 215 206 195 199 209 232 259 265 227 235 282 301 308 291 287 286 285 286 289 287 285 295 308 309 309 309 309 307 307 307 308 308 307 304 306
220 229 220 213 216 215 221 230 219 212 211 206 207 209 215 220 229 229 258 283 290 292 292 282 276 278 284 293 297 307 309 309 310 313 314 313 312 312 312 312 312 309 305
232 235 233 227 226 220 221 224 228 225 215 212 213 219 225 232 225 231 245 271 284 291 286 282 269 274 286 293 293 306 308 311 313 313 312 313 313 313 311 312 313 312 309
231 224 223 234 240 231 233 228 237 239 221 218 226 223 227 235 225 227 224 240 286 286 274 266 282 265 287 293 296 315 311 309 311 311 311 313 311 309 310 310 311 311 309
236 221 221 231 235 231 233 235 239 249 234 223 224 225 232 240 237 232 227 217 226 270 276 259 266 270 288 295 299 303 294 299 307 310 309 311 312 309 308 308 309 309 307
234 225 229 230 238 235 231 230 237 247 239 231 219 219 233 241 245 238 231 235 232 241 266 264 260 280 290 294 301 304 295 303 302 306 311 313 313 313 312 310 310 310 309
226 225 228 231 232 235 235 235 240 241 240 235 228 223 236 234 233 239 236 234 239 235 260 280 276 284 277 284 302 302 297 293 291 301 307 312 315 316 314 315 316 313 311
235 229 227 231 235 236 233 233 241 241 238 232 230 230 237 234 233 236 230 231 235 235 242 271 287 286 278 276 286 295 302 300 292 298 306 309 310 313 314 313 313 311 310
243 239 231 235 239 239 236 239 237 235 240 234 226 228 232 225 234 238 236 231 236 246 242 255 278 282 286 295 303 297 294 292 296 299 304 306 308 311 313 313 312 311 310
240 237 236 237 236 240 238 241 238 236 243 241 231 229 229 225 228 231 232 227 231 238 241 248 267 281 286 291 292 291 301 300 301 304 304 305 307 311 313 313 313 311 308
244 236 234 240 238 241 238 239 234 233 238 241 236 231 230 236 242 240 237 222 221 228 238 248 257 276 278 281 278 284 295 302 297 290 298 301 304 303 307 310 312 311 310
253 240 233 236 242 248 259 263 254 231 236 237 234 235 236 238 245 255 260 253 239 228 230 240 256 256 268 270 275 279 293 297 295 291 302 300 302 301 303 301 313 314 313
252 251 241 236 243 250 261 265 266 243 227 233 227 231 242 246 256 244 257 264 263 259 249 239 239 249 255 255 259 274 280 285 277 280 293 288 289 290 295 305 315 318 320
247 250 249 240 242 253 265 265 265 245 228 235 225 220 225 232 241 245 239 247 250 261 258 253 240 248 253 250 242 256 265 280 281 275 253 268 281 282 296 296 310 316 325
250 250 251 246 245 257 268 266 257 226 234 243 234 225 227 228 245 257 249 245 261 271 273 267 266 269 271 274 273 262 269 282 291 284 253 249 273 289 287 285 299 315 322
244 252 261 252 245 248 264 265 252 220 230 236 232 231 242 252 252 256 237 224 248 266 273 294 300 302 296 288 292 270 251 263 279 279 264 260 276 300 301 287 292 308 314